Location: Young's Pond
(41.2695°N, 72.7766°W)
Time: 06:06:00
(UTC-04:00)

Spot 4 - Visible Passes

Search period start: 19 April 2014 00:00
Search period end: 29 April 2014 00:00
Orbit: 707 x 725 km, 98.5° (Epoch: 18 April)

Date Brightness Start Highest point End Pass type
(mag) Time Alt. Az. Time Alt. Az. Time Alt. Az.
19 Apr 3.7 21:55:40 69° SE 21:56:11 79° ENE 22:01:04 10° N visible
19 Apr 6.5 23:34:50 11° W 23:34:50 11° W 23:36:00 10° WNW visible
20 Apr 5.1 21:03:56 22° E 21:05:25 26° ENE 21:09:24 10° NNE visible
20 Apr 5.0 22:43:06 35° W 22:43:13 35° W 22:47:41 10° NNW visible
21 Apr 3.8 21:51:22 60° SE 21:52:06 72° ENE 21:56:58 10° N visible
21 Apr 6.4 23:30:32 12° W 23:30:34 12° W 23:32:31 10° WNW visible
22 Apr 5.2 20:59:38 19° E 21:01:22 24° ENE 21:05:11 10° NNE visible
22 Apr 4.8 22:38:48 39° WSW 22:39:06 39° W 22:43:40 10° NNW visible
23 Apr 3.9 21:47:04 52° SE 21:48:01 65° ENE 21:52:51 10° N visible
23 Apr 6.3 23:26:14 14° W 23:26:26 14° W 23:28:50 10° WNW visible
24 Apr 5.3 20:55:20 17° E 20:57:19 22° ENE 21:00:58 10° NNE visible
24 Apr 4.7 22:34:30 42° WSW 22:35:00 43° W 22:39:38 10° NNW visible
25 Apr 4.0 21:42:46 45° ESE 21:43:56 59° ENE 21:48:43 10° N visible
25 Apr 6.2 23:21:56 15° W 23:22:17 15° W 23:25:04 10° NW visible
26 Apr 5.4 20:51:02 15° E 20:53:15 20° ENE 20:56:43 10° NNE visible
26 Apr 4.5 22:30:12 44° SW 22:30:53 48° W 22:35:35 10° NNW visible
27 Apr 4.1 21:38:28 40° ESE 21:39:51 53° ENE 21:44:35 10° N visible
27 Apr 6.1 23:17:38 16° W 23:18:08 17° W 23:21:13 10° NW visible
28 Apr 5.5 20:46:44 13° E 20:49:12 18° ENE 20:52:27 10° NNE visible
28 Apr 4.4 22:25:54 46° SW 22:26:46 53° W 22:31:31 10° NNW visible
